FENGYUN 1C DEB, 31236

Orbit data source: Space-Track

FENGYUN 1C DEB, 31236 is space debris in SSO originally from a launch on Mon, 10 May 1999 UTC launched from the Taiyaun Space Center, China (TSC). Fengyun 1C debris stems from the Chinese weather satellite Fengyun-1C, which was intentionally destroyed by a Chinese anti-satellite missile in 2007. This event dramatically increased the amount of space debris, with thousands of trackable fragments posing hazards to satellites and human spaceflight. The Fengyun 1C debris cloud has become a focal point in discussions about space sustainability and the need for international regulations to prevent the creation of new debris.

Loading next visibility...
Identifier
31236, 1999-025BLS
Orbit
SSO
Country
Flag of CNCN / PRC
Related business
Manufacturer
Unknown
Mission
Spacecraft
Bus & Motor
Unknown
Mass
Unknown
Launch date (UTC)
1999-05-10 (27 years ago)
Launch vehicle
Unknown
Launch site
Taiyaun Space Center, China (TSC)
Object type
Payload
Rocket body
Debris
Shape & HBR
Unknown shape, 0.1 m
Radar Cross Section
Small (<0.1 m²)

Expand to show TLE details & history
Last TLE update: 5 days ago

TLE from 5 days ago
0 FENGYUN 1C DEB
1 31236U 99025BLS 26250.79537173  .00005048  00000-0  28724-2 0  9999
2 31236  98.5412 188.6875 0308512  27.6122 334.1049 13.88886654647567
Epoch: 2026-09-07T19:05Z
TLE epoch observation values (Epoch: 2026-09-07T19:05:20.117Z)
Latitude
-0.00005°
Longitude
-84.51732°
Altitude
733.861 km
Speed
7.591 km/s
True Right ascension
12h 34m 45s
True Declination
0° 00' 00"
Sunlit
Object was in daylight at epoch
Visualization orbit readout
Latitude
Unknown
Longitude
Unknown
Altitude
Unknown
Speed
Unknown
Apparent Right ascension
Unknown
Apparent Declination
Unknown
Sunlit
N/A
Visualization observer readout
Local Sidereal Time
10:38:59
Azimuth
Unknown
Elevation
Unknown
Doppler factor
Unknown
Orbital elements
Apogee altitude
1,155.18 km
Perigee altitude
704.267 km
Semi-major axis
7,307.861 km
Eccentricity
0.03085
Inclination
98.5412°
RAAN
188.6875°
Arg. of periapsis
27.6122°
True anomaly
332.50576°
Mean anomaly
334.1049°
Eccentric anomaly
333.31097°
Mean motion
3.47422 °/min
Orbital period
103.62 mins
BSTAR
0.0028724
Loading maneuver chart data...
Computing Atmospheric mass density...
Loading historical data...
Loading historical data...
Loading historical data...
Loading historical data...
Loading historical data...
Loading historical data...
Loading historical data...

Documentation

Showing up to 5 results
|